Weather History for Fort Wayne, IN

Change the Weather History Date:

Tuesday, November 20, 2012

  Actual Average Record
Temperature  
Mean Temperature 48 °F 40 °F  
Max Temperature 56 °F 48 °F 70 °F (1942)
Min Temperature 40 °F 31 °F 11 °F (1903)
Degree Days  
Heating Degree Days 17 26  
Month to date heating degree days 479 428  
Since 1 July heating degree days 1046 937  
Cooling Degree Days 0 0  
Month to date cooling degree days 0 0  
Year to date cooling degree days 1108 809  
Moisture  
Dew Point 39 °F    
Average Humidity 71    
Maximum Humidity 86    
Minimum Humidity 55    
Precipitation  
Precipitation T in 0.11 in 1.58 in (1906)
Month to date precipitation 0.53 2.02  
Year to date precipitation 26.31 34.50  
Snow  
Snow 0.00 in 0.10 in 3.90 in (1987)
Month to date snowfall 0.4 0.8  
Since 1 July snowfall 0.5 1.1  
Since 1 September snowfall 1.1  
Snow Depth 0.00 in    
Sea Level Pressure  
Sea Level Pressure 30.14 in    
Wind  
Wind Speed 3 mph (SW)    
Max Wind Speed 9 mph    
Max Gust Speed 12 mph    
Visibility 10 miles    
Events      
T = Trace of Precipitation, MM = Missing Value Source: NWS Daily Summary

Daily Weather History Graph

Daily Weather History Graph

Search for Another Location

Airport:

Trip Planner

Search our weather history database for the weather conditions in past years. The results will help you decide how hot, cold, wet, or windy it might be!

Date:

Astronomy

Nov. 20, 2012 Rise Set
Actual Time 7:34 AM EST 5:18 PM EST
Civil Twilight 7:04 AM EST 5:47 PM EST
Nautical Twilight 6:31 AM EST 6:21 PM EST
Astronomical Twilight 5:58 AM EST 6:54 PM EST
Moon 1:06 PM EST (11/20) No Moon Set
Length of Visible Light 10h 43m
Length of Day
9h 43m
Waxing Crescent, 51% of the Moon is Illuminated
Nov 20
Waxing Crescent
Nov 28
Full
Dec 6
Last Quarter
Dec 13
New
Dec 20
First Quarter

Hourly Weather History & Observations

Time (EST) Temp. Windchill Dew Point Humidity Pressure Visibility Wind Dir Wind Speed Gust Speed Precip Events Conditions
12:54 AM 45.0 °F 42.6 °F 36.0 °F 71% 30.18 in 10.0 mi South 4.6 mph - N/A   Overcast
1:54 AM 44.1 °F - 36.0 °F 73% 30.16 in 10.0 mi Calm Calm - N/A   Overcast
2:54 AM 44.1 °F 40.1 °F 36.0 °F 73% 30.16 in 10.0 mi SSW 6.9 mph - N/A   Overcast
3:54 AM 44.1 °F 40.8 °F 36.0 °F 73% 30.15 in 10.0 mi SSW 5.8 mph - N/A   Overcast
4:54 AM 44.1 °F 40.8 °F 36.0 °F 73% 30.14 in 10.0 mi South 5.8 mph - N/A   Overcast
5:54 AM 44.1 °F 41.5 °F 36.0 °F 73% 30.15 in 10.0 mi NNW 4.6 mph - N/A   Overcast
6:54 AM 43.0 °F 41.3 °F 35.1 °F 74% 30.14 in 10.0 mi South 3.5 mph - N/A   Mostly Cloudy
7:54 AM 41.0 °F - 34.0 °F 76% 30.14 in 10.0 mi Calm Calm - N/A   Mostly Cloudy
8:54 AM 44.1 °F - 39.0 °F 82% 30.15 in 10.0 mi Calm Calm - 0.00 in   Overcast
9:54 AM 46.9 °F - 39.0 °F 74% 30.14 in 10.0 mi Calm Calm - N/A   Overcast
10:54 AM 48.9 °F - 39.9 °F 71% 30.15 in 10.0 mi Calm Calm - N/A   Overcast
11:54 AM 51.1 °F - 41.0 °F 68% 30.14 in 10.0 mi Calm Calm - 0.00 in   Overcast
12:54 PM 53.1 °F - 43.0 °F 69% 30.11 in 10.0 mi SSE 3.5 mph - N/A   Overcast
1:54 PM 55.4 °F - 39.2 °F 54% 30.08 in 10.0 mi SW 9.2 mph - N/A   Overcast
2:54 PM 55.0 °F - 39.9 °F 57% 30.09 in 10.0 mi SSW 4.6 mph - N/A   Overcast
3:54 PM 53.1 °F - 42.1 °F 66% 30.10 in 10.0 mi West 3.5 mph - 0.00 in   Overcast
4:54 PM 52.0 °F - 41.0 °F 66% 30.11 in 10.0 mi Calm Calm - N/A   Overcast
5:54 PM 48.9 °F - 43.0 °F 80% 30.12 in 9.0 mi West 5.8 mph - N/A   Overcast
6:54 PM 50.0 °F - 41.0 °F 71% 30.14 in 10.0 mi NW 4.6 mph - N/A   Overcast
7:54 PM 48.9 °F - 41.0 °F 74% 30.15 in 10.0 mi Calm Calm - N/A   Overcast
8:54 PM 46.9 °F - 42.1 °F 83% 30.15 in 10.0 mi West 3.5 mph - N/A   Overcast
9:54 PM 46.9 °F - 42.1 °F 83% 30.16 in 7.0 mi Calm Calm - N/A   Overcast
10:54 PM 46.9 °F - 41.0 °F 80% 30.17 in 8.0 mi Calm Calm - N/A   Overcast
11:54 PM 44.1 °F - 41.0 °F 89% 30.17 in 10.0 mi Calm Calm - N/A   Scattered Clouds